GFSSW_700_rhum_021.txt.gz
RH
10 10 12 15 18 19 18 18 16 14 14 14 15 14 12 7 4 3 2 4 6 11 17 18 19 22 21 18 37 63 54 47 45 50 57 54 58 72 64 51 58 55 47 49 54
10 9 9 9 10 12 15 18 18 16 15 15 15 16 14 11 5 4 2 4 4 9 18 21 21 20 21 20 20 51 43 40 40 46 43 51 56 45 46 43 50 54 40 47 44
20 14 10 9 9 9 10 12 15 18 17 16 16 16 15 14 10 6 4 5 4 5 15 18 22 21 20 20 25 39 39 41 40 49 48 51 60 60 52 38 42 36 40 39 37
25 23 20 17 12 10 9 8 8 11 15 17 16 17 16 15 14 12 17 9 4 3 7 18 20 20 21 22 25 33 35 36 35 40 49 55 56 49 44 40 41 54 40 36 28
26 25 23 22 20 18 15 11 8 7 8 11 15 17 15 12 12 14 19 20 6 3 4 14 17 20 22 23 23 24 32 32 30 35 45 55 48 41 37 41 48 38 45 34 36
26 26 25 24 22 21 20 19 17 12 8 7 8 11 13 9 14 13 6 15 14 5 6 10 14 18 19 22 21 22 24 28 28 27 46 48 47 44 47 42 50 43 27 21 39
29 27 25 25 24 23 22 21 20 18 14 9 7 6 5 6 15 12 12 9 11 15 7 10 15 18 19 20 20 19 20 25 27 25 26 40 59 39 45 39 46 45 27 15 31
28 28 28 27 25 23 24 23 21 19 17 15 11 8 5 5 12 13 11 12 11 10 12 10 10 12 16 17 18 20 21 23 25 22 22 38 42 40 48 40 43 48 42 30 16
27 26 27 27 27 26 29 26 23 21 20 17 14 11 7 5 5 9 11 11 15 9 9 9 9 8 11 13 17 19 22 24 24 20 20 34 38 43 44 41 42 46 45 39 15
26 25 26 26 26 27 30 28 28 25 21 20 17 13 8 7 6 8 6 10 15 9 18 16 15 10 9 15 23 21 22 23 24 22 27 29 40 39 39 39 38 40 42 43 33
18 21 23 24 25 28 30 30 29 27 23 22 20 18 13 9 8 10 7 10 17 13 22 23 28 17 8 15 18 20 22 23 24 19 23 29 39 39 37 37 39 40 40 41 42
5 8 10 12 19 25 30 32 32 28 22 23 21 18 17 18 13 17 9 11 14 16 18 26 26 17 15 15 24 22 22 23 22 20 18 18 21 31 38 35 25 29 36 39 42
2 2 2 4 7 16 33 38 40 39 30 17 19 17 16 18 12 14 12 9 10 18 13 20 18 20 22 21 24 24 23 22 22 20 17 17 21 35 40 40 38 39 36 40 41
2 2 2 2 5 8 25 40 44 42 33 22 20 15 15 16 16 11 19 14 16 16 19 21 16 18 22 23 22 23 21 21 21 18 17 19 42 46 38 40 41 37 36 39 43
1 1 1 2 3 3 10 37 42 42 42 22 20 15 13 12 14 13 19 21 22 20 22 19 12 18 22 16 17 19 20 21 19 17 17 17 22 21 44 43 40 31 33 38 40
2 2 2 1 2 5 4 26 52 46 35 24 20 16 15 12 13 11 12 22 22 26 25 16 14 16 16 21 16 15 18 18 18 18 21 17 19 18 25 33 32 28 29 30 34
2 2 2 2 1 4 5 13 40 39 30 26 20 17 14 13 13 12 13 28 28 28 27 27 24 20 20 20 19 22 19 20 20 21 21 17 17 18 18 18 29 28 25 28 30
3 3 3 2 2 3 6 28 40 36 36 27 24 22 19 14 13 13 16 27 28 25 26 28 27 26 21 20 19 20 21 19 24 26 19 14 19 17 18 16 19 26 25 27 29
6 5 4 4 6 5 8 37 23 30 38 36 33 29 24 21 16 14 14 26 22 24 25 24 25 20 20 18 18 18 20 19 16 15 19 14 13 15 17 16 18 21 25 28 28
10 10 14 17 30 50 22 22 33 40 41 40 36 37 30 28 28 24 15 17 26 30 26 22 16 15 13 19 20 19 17 17 17 21 21 14 12 13 15 16 16 15 18 25 25
18 18 40 28 38 82 65 60 41 43 48 48 47 50 45 46 48 44 31 30 24 23 30 30 23 17 14 15 15 21 19 18 16 14 17 19 13 10 10 14 15 16 15 18 20
22 29 50 51 39 68 88 86 83 64 42 57 53 49 56 56 56 50 43 47 35 36 27 24 25 22 18 14 12 14 17 18 16 14 12 12 12 10 8 9 14 15 14 14 14
34 33 44 47 71 86 93 88 95 88 76 72 72 70 61 64 58 57 54 48 47 52 41 38 30 22 16 15 15 17 14 15 16 17 16 15 12 10 9 10 11 13 14 14 16
52 51 48 68 82 70 74 78 93 96 84 88 86 73 68 71 70 63 57 58 61 58 51 52 48 39 28 16 17 15 16 15 16 17 16 15 13 11 10 10 8 11 14 15 16
64 67 67 75 65 69 80 70 78 96 95 95 81 83 80 72 68 64 73 58 50 50 49 50 54 44 36 31 22 23 18 14 16 16 16 15 13 12 10 10 10 9 10 10 13
78 87 83 71 75 79 81 86 83 82 94 88 96 80 81 76 76 78 66 58 54 50 50 52 58 52 43 31 24 21 20 17 15 13 14 14 14 12 10 10 9 8 8 11 12
84 94 94 94 100 91 94 86 86 100 84 98 92 70 62 72 63 60 67 57 52 48 42 43 47 55 52 31 26 21 18 18 17 15 13 13 14 14 13 12 12 12 10 8 11

GFSSW_700_rhum_024.txt.gz
RH
17 12 10 10 10 9 10 12 15 16 17 14 14 14 14 13 12 4 2 3 4 5 13 16 18 19 22 19 22 53 55 50 52 53 54 53 59 60 60 54 54 57 55 55 50
26 24 21 16 11 10 10 9 10 13 15 16 15 14 14 14 14 9 5 2 3 4 13 19 23 21 22 22 20 40 52 49 50 52 54 52 57 50 49 51 56 50 45 55 47
28 26 25 24 22 18 13 10 9 8 10 13 16 15 14 13 14 11 7 3 3 4 9 13 17 20 22 22 21 26 38 46 42 42 48 59 56 59 52 42 45 38 36 36 39
29 27 26 24 24 23 21 19 15 10 8 8 12 13 13 14 15 13 13 6 6 5 6 14 16 20 22 23 23 27 37 40 37 34 39 44 59 55 50 46 52 51 35 41 31
31 29 27 25 24 24 22 22 20 19 15 10 8 9 10 10 12 18 14 17 13 6 5 8 18 20 23 23 23 25 30 32 33 31 29 42 49 56 52 47 50 47 44 34 30
31 31 30 28 25 24 24 23 20 19 19 18 13 9 7 6 14 17 14 12 15 6 4 6 16 20 22 22 22 23 23 24 30 29 28 26 31 47 59 58 49 46 51 32 32
30 29 29 29 28 26 26 25 22 22 20 19 17 14 9 7 14 15 13 9 16 7 4 5 11 19 21 21 20 21 22 22 24 29 27 26 34 39 49 58 56 48 47 31 40
29 28 27 27 26 27 29 27 25 25 23 21 19 17 12 9 7 10 12 12 12 14 12 12 16 17 19 19 19 19 20 20 24 23 25 24 23 24 39 54 52 49 51 22 25
22 23 24 25 25 26 25 27 27 26 26 25 22 20 16 10 7 8 13 11 11 11 15 21 23 18 17 19 18 18 20 21 22 23 24 21 21 24 36 42 46 51 51 39 18
6 8 10 13 19 22 24 26 27 27 26 26 24 22 16 13 8 6 10 14 15 19 21 22 23 18 13 14 17 17 18 20 21 22 24 23 22 28 31 37 41 44 49 48 39
2 2 2 2 5 10 15 21 27 28 25 26 25 23 20 15 10 9 8 13 18 21 20 19 21 13 8 10 12 15 18 19 21 23 24 24 29 31 33 39 38 40 45 50 42
1 1 1 2 2 2 5 13 23 28 22 25 24 21 23 21 17 12 10 11 17 18 21 27 18 10 7 10 10 11 17 19 21 22 23 21 33 33 34 33 38 38 37 43 42
1 1 1 1 1 2 4 6 17 30 27 16 20 19 20 24 21 16 10 11 12 15 18 21 20 14 14 15 12 10 16 19 22 22 22 20 18 18 21 24 41 40 38 40 41
1 1 1 1 2 1 2 4 9 34 27 20 20 20 19 20 22 20 16 12 13 14 17 23 20 19 18 16 16 13 12 22 24 22 21 21 29 22 30 27 30 36 38 37 40
2 2 1 1 1 1 2 3 8 31 43 23 24 19 15 15 19 20 22 19 13 11 16 19 15 23 24 17 16 16 15 21 23 22 20 19 23 20 18 28 28 26 32 33 34
3 2 2 2 1 1 2 4 20 33 47 28 26 20 18 15 15 16 22 25 19 16 13 13 17 18 13 16 16 16 23 21 23 22 24 20 20 19 18 20 27 25 30 29 29
4 3 3 2 2 2 2 6 28 43 22 29 25 20 19 16 16 15 18 27 26 23 22 20 19 19 15 19 21 21 24 25 24 28 25 20 19 20 19 18 26 27 27 27 26
6 6 5 4 3 2 3 19 37 25 31 32 29 26 26 19 16 16 17 21 29 21 25 27 27 25 21 21 16 23 23 22 32 31 22 18 18 18 19 20 24 26 19 21 28
9 8 8 7 7 6 7 17 26 36 40 40 36 32 30 25 19 16 19 22 29 30 25 27 27 22 22 21 22 23 24 19 18 20 21 16 14 15 16 18 19 22 18 18 23
12 10 13 14 20 25 30 15 36 57 62 50 44 44 38 33 28 21 18 26 26 33 29 26 27 23 19 24 22 22 19 24 24 28 29 21 14 12 14 15 18 19 18 17 16
19 16 23 24 28 32 72 67 45 50 61 61 62 58 56 46 43 36 41 33 36 32 34 32 25 19 25 25 24 22 22 19 20 20 28 28 17 13 12 14 15 17 17 16 16
23 30 37 34 37 78 88 89 84 62 67 70 71 69 63 56 52 49 47 52 46 42 36 35 34 30 20 20 17 18 18 21 19 19 19 17 15 11 9 9 14 15 17 16 16
23 37 45 42 54 62 63 73 89 93 76 77 78 81 79 72 56 56 52 56 54 49 47 43 40 29 28 27 20 20 22 20 19 19 18 18 16 9 9 10 10 11 15 16 16
49 55 54 65 67 72 63 63 57 73 96 96 89 89 78 70 70 66 61 66 65 61 55 52 52 47 40 32 33 24 19 19 21 20 19 18 16 14 12 10 8 8 9 12 13
73 75 75 69 61 71 83 73 86 76 76 88 98 96 90 76 73 63 58 58 56 54 51 50 51 52 50 40 40 33 24 18 20 19 19 18 18 16 16 15 13 9 8 11 13
92 96 96 99 85 99 86 93 88 87 86 69 85 97 93 81 88 75 73 59 49 47 46 46 50 46 44 43 37 34 30 25 24 23 22 18 16 15 13 14 13 12 11 9 10
89 98 99 94 89 88 95 84 79 89 71 92 94 95 87 78 75 75 79 61 50 44 34 36 37 36 42 48 43 33 27 24 22 22 21 19 18 17 16 15 14 11 10 11 11

GFSSW_700_rhum_030.txt.gz
RH
30 29 27 25 24 22 20 13 9 8 8 10 12 13 12 12 12 11 7 8 3 4 7 13 17 18 19 21 23 28 72 49 48 50 57 71 74 59 50 54 61 61 59 55 58
35 33 31 28 26 24 22 21 18 13 9 7 8 11 12 12 12 10 14 6 2 3 5 12 19 20 18 22 23 27 63 47 49 48 49 67 72 54 71 50 54 56 54 57 54
35 34 34 33 31 27 24 23 21 20 18 12 8 8 10 12 12 11 11 9 4 2 3 6 13 17 24 40 45 46 59 51 46 49 54 66 72 62 61 70 61 48 51 55 53
34 33 32 31 31 30 28 25 24 22 21 19 16 11 8 9 14 12 11 10 7 3 3 5 11 17 52 29 33 57 52 55 49 45 49 59 66 70 60 58 58 44 52 52 55
29 30 31 30 30 28 28 29 29 26 23 21 19 18 14 9 8 13 12 9 7 5 3 4 9 25 54 54 54 39 53 47 50 43 40 44 60 63 71 54 53 32 46 52 58
13 17 20 24 26 27 27 27 27 28 26 23 23 20 18 15 8 13 12 12 8 4 3 4 7 46 54 56 54 42 50 48 39 31 32 33 50 59 61 54 47 50 29 37 54
3 4 5 6 11 18 21 23 25 26 27 27 26 25 21 20 10 8 11 13 14 14 6 4 16 48 41 44 31 43 28 25 25 26 28 31 40 48 54 37 52 49 48 31 39
2 2 2 2 2 4 7 12 16 21 24 26 28 28 24 21 14 8 10 12 14 16 26 40 19 52 44 32 26 27 25 25 28 25 25 27 27 33 46 31 44 53 50 32 25
2 2 2 2 1 2 2 3 6 10 15 22 26 28 28 25 21 15 8 14 13 16 17 42 46 43 45 40 25 24 24 27 26 26 26 29 27 31 47 33 41 46 51 50 26
2 2 2 2 2 1 1 1 2 4 8 13 22 30 26 24 20 20 10 15 16 15 12 17 13 30 36 30 24 22 23 24 26 26 26 28 29 30 49 56 65 35 48 54 44
2 2 2 2 2 2 1 1 2 3 4 8 17 28 27 22 24 14 12 14 16 18 20 21 27 21 18 22 22 20 21 23 23 25 24 26 25 28 36 54 59 70 38 48 48
2 2 1 1 1 1 1 1 1 3 5 5 7 12 28 25 18 16 12 12 15 28 30 28 23 21 20 18 22 21 20 20 22 22 24 26 26 27 33 52 57 60 37 39 51
3 2 2 2 2 2 2 2 1 1 3 5 5 5 10 29 18 17 11 13 14 30 26 21 20 22 21 21 21 20 21 20 20 21 22 22 22 24 27 46 51 62 61 54 41
4 3 3 3 3 2 2 2 1 2 6 13 5 8 8 22 27 22 16 12 23 24 21 19 19 22 21 20 19 17 18 18 18 19 20 21 20 21 23 34 43 49 54 45 41
3 3 3 3 4 4 3 2 2 8 16 24 22 19 15 21 28 25 22 16 17 20 20 19 19 21 21 20 20 16 13 16 17 17 19 19 20 19 22 25 29 36 46 59 46
5 5 4 6 5 6 5 3 5 23 16 24 26 26 25 28 31 33 26 24 21 19 20 19 20 20 22 22 21 20 16 18 19 15 15 18 19 18 20 25 26 31 37 34 32
6 6 6 6 9 8 6 5 30 22 18 37 38 38 33 25 31 30 34 35 32 25 20 21 19 22 20 22 22 22 21 17 16 14 13 14 17 18 18 20 25 26 29 21 22
10 9 9 9 13 11 8 38 26 26 50 57 53 45 36 33 29 25 29 32 31 27 20 20 19 19 21 20 21 21 19 13 16 10 9 12 13 14 17 20 22 25 23 34 37
14 13 11 13 14 13 11 30 24 71 79 68 48 42 33 39 34 31 25 26 29 27 22 19 19 17 20 21 20 23 20 13 11 12 11 8 10 13 17 18 20 21 22 24 34
20 18 16 14 15 15 47 41 64 82 83 71 55 53 48 47 42 33 25 35 30 28 30 25 20 19 20 20 19 18 18 16 13 17 16 8 9 10 12 17 19 20 22 24 28
25 38 26 23 23 48 44 55 64 67 76 73 66 64 60 59 54 39 44 50 41 43 41 34 24 20 19 20 18 19 19 17 14 12 11 11 8 9 12 16 17 19 21 23 25
28 51 34 31 59 63 58 66 64 64 68 70 73 64 65 70 61 55 60 72 63 64 46 38 31 25 21 20 19 18 18 18 15 17 14 12 9 12 11 12 18 16 20 22 26
37 47 44 40 66 72 78 76 78 75 77 84 93 81 81 75 68 68 74 74 62 65 58 53 32 26 22 22 22 19 19 18 17 14 16 15 11 13 15 19 21 23 21 21 23
51 82 81 91 82 86 88 75 74 75 86 82 86 87 95 62 63 73 67 70 65 62 53 50 40 29 22 22 23 22 20 19 19 18 15 16 13 14 14 17 17 17 18 17 13
69 100 83 92 86 99 99 87 78 82 88 79 87 96 97 89 77 64 80 69 64 62 58 56 44 48 38 43 37 26 22 21 20 20 18 15 16 16 17 17 19 20 20 11 10
73 73 96 77 98 100 93 94 90 97 98 87 95 98 93 96 97 97 97 74 66 72 64 56 50 53 46 40 39 34 34 30 25 23 22 20 19 18 19 23 20 22 12 12 10
94 78 91 78 90 100 92 97 100 100 94 94 98 97 84 98 97 100 100 87 77 77 68 62 47 48 37 36 37 37 35 33 31 29 28 26 25 25 24 24 25 12 9 9 8

GFSSW_700_rhum_033.txt.gz
RH
35 33 32 29 27 25 23 20 18 13 9 8 7 11 13 13 11 10 9 9 3 3 6 14 18 20 23 35 71 72 80 54 34 46 41 46 46 58 68 75 82 86 56 55 67
35 34 34 32 31 29 26 24 22 19 17 12 8 7 10 12 12 9 11 10 3 2 5 15 20 21 55 45 74 71 75 57 37 34 47 45 43 52 59 67 79 84 70 60 62
32 33 33 32 32 30 30 29 25 23 20 18 15 9 7 9 12 10 10 10 5 2 3 6 47 55 68 59 64 59 67 54 38 38 44 42 47 46 51 59 71 79 48 53 56
22 24 26 28 30 30 30 29 29 26 23 20 19 18 12 8 13 15 11 10 9 4 3 27 58 72 60 54 55 54 51 47 38 38 40 41 44 47 46 44 66 54 46 50 53
8 10 13 17 20 24 26 27 27 27 27 24 22 19 18 14 8 8 11 11 11 6 2 34 55 62 54 45 49 51 47 45 43 39 35 41 45 55 52 49 58 34 37 50 56
2 3 4 5 8 11 14 17 21 24 26 27 27 23 20 17 15 8 10 11 9 8 6 39 47 56 51 42 44 44 46 42 40 37 33 32 40 46 52 57 66 30 31 39 57
2 2 2 2 2 5 7 8 10 15 21 24 27 27 23 21 18 12 7 11 13 7 25 34 38 52 47 44 42 44 37 41 40 32 27 28 34 42 48 63 69 53 22 27 44
3 3 3 2 2 2 2 4 5 7 10 15 21 26 25 24 20 13 8 11 15 13 36 34 37 44 47 39 36 41 38 30 28 27 26 27 26 33 42 58 68 74 61 25 30
2 2 2 2 3 3 3 2 2 4 5 7 12 20 25 24 26 22 11 10 30 41 51 39 41 46 47 38 28 25 27 28 24 25 24 25 24 29 38 48 57 71 76 70 31
2 2 1 1 1 2 2 2 3 3 4 5 7 15 23 26 25 26 18 14 54 56 55 47 44 40 42 42 29 21 21 22 24 24 23 23 23 31 32 42 50 66 73 76 66
2 2 2 2 2 1 1 1 3 4 4 4 28 15 31 30 26 24 24 19 53 53 48 48 44 42 29 38 29 22 18 19 20 22 23 23 24 25 29 38 43 59 67 74 75
2 2 2 2 2 2 2 2 2 3 6 5 5 6 12 32 30 26 23 28 48 47 36 37 37 26 21 19 26 25 19 17 19 20 24 23 23 23 25 31 39 50 62 68 74
4 4 4 4 3 3 2 2 2 2 3 5 5 4 5 9 23 34 21 25 39 45 30 21 20 20 16 15 17 18 18 17 16 19 21 22 22 22 23 26 38 44 57 62 69
6 6 5 5 6 4 8 3 3 3 10 13 8 8 7 9 15 28 25 20 31 36 35 23 18 17 17 15 14 12 14 17 16 17 18 20 20 20 22 22 35 40 50 56 65
7 7 7 7 6 5 4 3 4 6 21 17 24 21 23 15 18 17 30 18 22 25 27 24 19 16 16 15 14 13 12 13 16 17 17 17 19 18 19 20 24 34 42 49 56
10 10 10 9 9 9 5 4 4 41 20 19 22 25 27 28 23 25 29 19 22 20 20 20 17 15 16 16 14 14 13 12 12 13 15 16 16 17 16 18 20 26 32 39 47
16 14 13 12 11 7 6 15 33 24 14 30 34 29 24 24 28 25 31 24 22 20 18 18 17 16 15 16 15 16 14 13 12 11 13 13 14 16 15 16 18 21 25 30 39
24 17 13 14 15 8 8 35 29 20 39 50 50 44 38 30 24 24 28 31 22 19 16 17 17 16 16 15 16 17 13 11 16 11 9 10 12 13 15 16 16 20 22 26 33
24 18 52 20 18 11 40 30 23 43 62 55 47 34 28 28 28 23 24 27 26 19 18 17 17 16 16 16 17 17 14 11 9 8 8 7 8 9 11 13 17 19 21 24 29
26 42 66 24 20 45 42 28 35 52 48 47 45 41 43 38 32 29 21 22 25 25 26 21 18 17 16 17 16 16 15 13 11 13 12 8 8 9 11 14 14 18 21 21 23
26 52 53 24 48 41 29 30 40 42 39 42 40 49 61 70 64 38 28 35 35 31 26 25 22 19 17 16 16 16 16 14 11 9 10 12 9 7 9 13 15 17 19 20 20
46 57 62 28 45 35 35 47 46 40 38 43 45 46 48 66 80 59 48 54 46 37 32 27 28 25 17 16 17 16 15 17 14 13 9 9 10 10 9 11 14 17 18 19 21
63 66 62 62 50 42 45 46 59 52 46 52 49 79 91 85 92 99 88 74 55 51 49 39 32 28 21 17 17 16 15 14 15 12 12 11 10 14 15 14 14 16 17 20 22
87 66 56 56 53 54 56 53 59 78 56 51 67 78 84 69 68 74 94 79 58 55 55 54 39 29 20 18 17 17 15 14 14 14 12 13 11 15 16 18 21 20 18 21 24
99 89 96 72 66 70 71 63 71 80 60 54 71 88 81 83 88 98 96 80 56 56 52 50 47 35 28 22 21 17 17 16 15 14 13 12 14 14 16 18 17 19 22 24 28
97 98 96 100 88 94 79 76 74 64 61 55 58 72 79 82 87 85 92 96 81 76 61 49 44 40 32 26 32 28 22 17 15 16 15 14 13 14 16 17 18 20 21 24 25
97 96 97 90 99 88 85 78 69 70 69 86 85 68 63 81 89 73 84 77 73 68 62 61 44 45 40 36 34 32 25 22 18 17 16 17 16 16 17 21 23 24 24 24 24